Regional Weather Roundup
Issued by NWS

Home | Current Version | Previous Version | Graphics & Text | Print | Product List | Glossary On
Versions: 1 2 3 4 5 6 7 8 9 10 11 12 13 14 15 16 17 18 19 20 21 22 23 24 25 26 27 28 29 30 31 32 33 34 35 36 37 38 39 40 41 42 43 44 45 46 47 48 49 50
000
ASUS43 KMKX 241911
RWRWI

WISCONSIN REGIONAL WEATHER ROUNDUP
NATIONAL WEATHER SERVICE MILWAUKEE/SULLIVAN WI
200 PM CDT TUE MAY 24 2016

NOTE: "FAIR" INDICATES FEW OR NO CLOUDS BELOW 12,000 FEET WITH NO
SIGNIFICANT WEATHER AND/OR OBSTRUCTIONS TO VISIBILITY.

WIZ001-002-006>008-014>016-023>028-242000-
NORTHWEST WISCONSIN

CITY           SKY/WX    TMP DP  RH WIND       PRES   REMARKS
SUPERIOR ARPT  SUNNY     73  60  64 N5        29.88F
ASHLAND        PTSUNNY   71  66  84 NE9       29.87S
HAYWARD        CLOUDY    74  59  59 W8        29.89S
SIREN          MOSUNNY   77  60  56 W8        29.90R
CUMBERLAND     CLOUDY    77  55  47 W8        29.90R
RICE LAKE      CLOUDY    80  53  39 W12       29.91S HX  80
CHETEK         CLOUDY    77  58  50 W7        29.90S
LADYSMITH      PTSUNNY   76  61  59 SW8       29.92S
EAU CLAIRE     PTSUNNY   78  59  51 SW9       29.90S
MENOMONIE      CLOUDY    80  69  70 SW8       29.90R HX  82
NEW RICHMOND   CLOUDY    79  53  40 W10       29.90S
OSCEOLA        SUNNY     79  58  48 SW6       29.92S HX  80
$$

WIZ003>005-009-010-017-018-242000-
NORTH CENTRAL WISCONSIN

CITY           SKY/WX    TMP DP  RH WIND       PRES   REMARKS
MANITOWISH WTR PTSUNNY   70  65  85 S7        29.90S
ARBOR VITAE    LGT RAIN  67  63  86 SW3       29.92R
WOODRUFF       LGT RAIN  67  63  86 SW3       29.92R
RHINELANDER    CLOUDY    71  61  70 SW8       29.93F
EAGLE RIVER      N/A     71  59  64 SW8       29.91F
LAND O LAKES   PTSUNNY   72  60  66 SW5       29.93R
PHILLIPS       MOSUNNY   73  60  63 SW9       29.90S
TOMAHAWK       MOSUNNY   72  61  68 S3        29.92F
MEDFORD        PTSUNNY   71  64  77 SW7       29.93S
MERRILL        CLOUDY    73  61  64 W5        29.93F
$$

WIZ029-030-035-036-043>047-242000-
CENTRAL WISCONSIN

CITY           SKY/WX    TMP DP  RH WIND       PRES   REMARKS
WAUSAU         CLOUDY    77  60  55 S8        29.91S
MOSINEE        MOSUNNY   68  66  94 SW7       29.94R
MARSHFIELD     CLOUDY    79  59  50 SW16G22   29.91F HX  80
STEVENS POINT  CLOUDY    74  57  55 SW12      29.93S
WAUPACA        CLOUDY    79  59  50 S12       29.91F HX  80
WAUTOMA        CLOUDY    79  59  50 SW12      29.92F HX  80
WISC RAPIDS    CLOUDY    80  58  46 SW14      29.93F HX  80
CAMP DOUGLAS   NOT AVBL
$$

WIZ011>013-019>022-031-037>040-048>050-242000-
NORTHEAST WISCONSIN

CITY           SKY/WX    TMP DP  RH WIND       PRES   REMARKS
ANTIGO         CLOUDY    70  61  72 SW9       29.94S
SHAWANO        CLOUDY    80  60  51 SW8       29.91S HX  80
OCONTO         CLOUDY    76  61  60 S8        29.89S
STURGEON BAY   NOT AVBL
GREEN BAY      CLOUDY    80  59  48 W12       29.90F HX  81
MANITOWOC      HVY RAIN  66  60  81 S13G24    29.93R
APPLETON       PTSUNNY   81  55  41 SW17G26   29.91S HX  80
CLINTONVILLE   CLOUDY    77  55  47 SW8       29.90F
OSHKOSH        PTSUNNY   77  59  53 SW9       29.92S
$$

WIZ032>034-041-042-053>061-242000-
SOUTHWEST WISCONSIN

CITY           SKY/WX    TMP DP  RH WIND       PRES   REMARKS
LA CROSSE      CLOUDY    79  60  52 SE7       29.91F HX  80
SPARTA         CLOUDY    77  60  54 W6G16     29.93S
VIROQUA        CLOUDY    78  56  47 W3        29.95S
BOSCOBEL       MOSUNNY   82  59  45 VRB5      29.92F HX  82
PRAIRIE DU CHI CLOUDY    79  55  44 CALM      29.90F
PLATTEVILLE    CLOUDY    77  64  62 W6        29.94F
$$

WIZ056-057-062-063-064-067-068-242000-
SOUTH CENTRAL WISCONSIN

CITY           SKY/WX    TMP DP  RH WIND       PRES   REMARKS
REEDSBURG      CLOUDY    80  60  50 SW10      29.92F HX  81
BARABOO/DELLS  CLOUDY    80  55  41 SW12      29.93S HX  80
LONE ROCK      PTSUNNY   80  58  46 W8        29.93F HX  80
MINERAL POINT  CLOUDY    79  61  53 SW7       29.95F HX  80
MADISON        LGT RAIN  76  59  55 VRB3      29.94F
MIDDLETON      PTSUNNY   76  60  57 W10       29.95S
WATERTOWN      NOT AVBL
MONROE         CLOUDY    81  55  41 SW12G17   29.95S HX  80
JANESVILLE     PTSUNNY   84  55  37 SW12G17   29.93F HX  83
$$

WIZ051-052-058>065-066-070>072-242000-
SOUTHEAST WISCONSIN

CITY           SKY/WX    TMP DP  RH WIND       PRES   REMARKS
MILWAUKEE      CLOUDY    83  59  44 S13G22    29.94F HX  83
WAUKESHA       PTSUNNY   81  55  41 SW13G18   29.95F HX  80
MILWAUKEE/TIMM PTSUNNY   81  54  39 SW14G22   29.94F HX  80
RACINE         PTSUNNY   83  57  41 S13G21    29.96S HX  82
BURLINGTON     MOSUNNY   84  53  33 SW14G20   29.94F HX  82
KENOSHA        MOSUNNY   84  59  42 S14G22    29.95F HX  84
FOND DU LAC    LGT RAIN  76  59  55 SW9G21    29.94R
SHEBOYGAN      CLOUDY    77  57  50 S9        29.93R
WEST BEND      DRIZZLE   73  59  60 W10       29.95R
JUNEAU         CLOUDY    74  63  67 SW10      29.96S
$$

LSZ147-162-242000-
LAKE SUPERIOR

STATION/POSITION TIME  TEMP    WIND        PRES    WAVE
                       AIR SEA DIR/SP/G            HT/PER
                 (UTC) (F)     (DEG/KT/KT) (MB)    (FT/S)
W MID LAKE BUOY  1850   47 38  340/  2/  4 1013.4R   0
DEVILS ISLAND    1900   52      30/  8/  9 1013.0F
PORT WING        1720   51      50/  6/ 16 1011.9
SAXON HARBOR     1840   60     340/  2/  3 1011.2F
$$

LMZ867-665-643>646-242000-
LAKE MICHIGAN

STATION/POSITION TIME  TEMP    WIND        PRES    WAVE
                       AIR SEA DIR/SP/G            HT/PER
                 (UTC) (F)     (DEG/KT/KT) (MB)    (FT/S)
CHAMBERS ISLAND  1800   74     190/  4/  7 1012.2F
N MID LAKE BUOY  1850   48 45  180/  8/ 10 1012.6F   1/ 4
NORTHPORT PIER   1800   55     150/  9/ 13 1012.5F
SISTER BAY       1849   75     180/ 16/ 19   N/A
ALGOMA LAKESHORE 1816          200/  9/ 10   N/A
KEWAUNEE LAKESHO 1800   55     180/ 15/ 16 1012.4R
SHEBOYGAN LAKESH 1900   59     170/ 21/ 21 1013.5F
PORT WASHINGTON  1840   62     180/  5/  8 1014.6S
S MID LAKE BUOY  1850   54 48  150/ 10/ 12 1015.1F   1/ 3
KENOSHA   LAKESH 1900   65     160/ 10/ 15 1013.9F
$$

TC  - TEMPERATURE IN CELSIUS
VSB - VISIBILITY IN STATUTE MILES
WCI - WIND CHILL INDEX
HX  - HEAT INDEX





USA.gov is the U.S. government's official web portal to all federal, state and local government web resources and services.